Simultaneous Nadir Overpasses (SNOs) Predictions

Prediction of SNOs between AQUA and METOP-B Satellite Orbit:

Table of predicted SNOs for the next 14.0 days since TLE Epoch: 12/31/2022
Index Date (AQUA) Time (AQUA) Lat,Lon (AQUA) SZA (AQUA ) Date (METOP-B) Time (METOP-B) Lat,Lon (METOP-B) SZA (METOP-B ) Distance(km) Time Diff (sec)
1 01/01/2023 12:47:09 -74.01, 163.77 83.03 01/01/2023 12:45:57 -73.91, 162.97 83.09 26.66 72
2 01/01/2023 13:36:39 74.20, -29.02 97.17 01/01/2023 13:36:31 74.21, -28.96 97.19 2.63 8
3 01/01/2023 14:26:05 -74.25, 138.50 82.78 01/01/2023 14:27:12 -74.24, 138.43 82.79 2.22 67
4 01/04/2023 07:30:48 74.12, 62.63 96.84 01/04/2023 07:29:35 74.06, 62.40 96.80 9.76 73
5 01/04/2023 08:20:15 -74.22,-129.96 83.06 01/04/2023 08:20:14 -74.19,-129.95 83.09 3.72 1
6 01/04/2023 09:09:42 74.26, 37.59 96.98 01/04/2023 09:10:52 74.28, 37.63 97.00 2.95 70
7 01/07/2023 02:14:22 -74.14, -38.29 83.45 01/07/2023 02:13:15 -74.13, -38.35 83.45 2.47 67
8 01/07/2023 03:03:50 74.23, 129.13 96.65 01/07/2023 03:03:53 74.22, 129.22 96.64 2.98 3
9 01/07/2023 03:53:19 -74.43, -63.70 83.14 01/07/2023 03:54:30 -74.45, -62.87 83.16 24.87 71
10 01/09/2023 20:57:57 74.16,-139.20 96.21 01/09/2023 20:56:55 74.15,-139.22 96.21 1.24 62
11 01/09/2023 21:47:23 -74.20, 28.34 83.75 01/09/2023 21:47:35 -74.23, 28.32 83.72 3.37 12
12 01/09/2023 22:36:58 74.66,-165.12 96.73 01/09/2023 22:38:06 74.66,-163.21 96.68 56.12 68
13 01/12/2023 15:41:30 -74.17, 119.90 84.20 01/12/2023 15:40:37 -74.15, 119.88 84.21 2.19 53
14 01/12/2023 16:30:57 74.22, -72.57 95.85 01/12/2023 16:31:15 74.24, -72.57 95.87 2.26 18



Historial Predications of SNOs between AQUA and METOP-B
